[[{"header":{"parameterUnit":"m.s-1","parameterCategory":1,"la1":30.2991,"la2":30.254,"lo1":-89.0895,"lo2":-89.0444,"dy":0.0017,"dx":0.0017,"nx":28,"ny":28,"refTime":"2025-04-14T03:00:00:Z","depth":0,"parameterNumber":2,"parameterNumberName":"U-component_of_WINDS"},"data":[0,0,0,0,0,0,0,0,0,0,0,0,0,0,0,0,0,0,0,0,0,0,0,0,0,0,0,0,0,0,0,0,0,0,0,0,0,0,0,0,0,0,0,0,0,0,0,0,0,0,0,0,0,0,0,0,0,0,3.777,3.7772,0,3.7924,3.7925,3.7927,3.7909,3.7906,3.7904,3.7902,3.806,3.8066,3.8073,0,0,0,0,0,0,0,0,0,0,0,0,0,3.7459,3.7464,3.777,3.7772,3.7774,3.7923,3.7926,3.7928,3.7909,3.7906,3.7903,3.79,3.8058,3.8066,3.8073,0,0,0,0,0,0,0,0,0,0,0,0,0,3.7601,3.7466,3.7769,3.7782,3.7785,3.7923,3.7926,3.7928,3.791,3.7906,3.7902,3.7899,3.8055,3.8065,3.8074,3.8209,0,0,3.8104,3.8109,0,0,0,0,0,0,0,0,3.7593,3.7613,3.7779,3.7782,3.7785,3.7893,3.7874,3.8023,3.7911,3.7863,3.7902,3.7897,3.8008,3.8021,3.8058,3.8217,3.8224,3.8105,3.8111,3.8115,3.8118,0,0,0,0,0,0,0,3.7583,3.7606,3.7831,3.7781,3.7785,3.778,3.7796,3.7902,3.7954,3.7867,3.7866,3.7884,3.8009,3.8049,3.8062,3.8226,3.8105,3.8114,3.812,3.8124,3.8499,3.8503,0,0,0,0,0,0,3.757,3.7598,3.7826,3.7835,3.7678,3.7789,3.7807,3.7862,3.7953,3.7963,3.7887,3.7883,3.8034,3.805,3.8067,3.8228,3.8115,3.8125,3.813,3.8495,3.85,3.8504,0,0,0,0,0,0,3.7564,3.7591,3.782,3.7716,3.7745,3.7798,3.7861,3.7867,3.7907,3.7968,3.7978,3.7918,3.8032,3.8053,3.8173,3.8233,3.8129,3.8138,3.849,3.8496,3.8502,3.8552,0,0,0,0,0,0,3.7555,3.7588,3.7641,3.7718,3.7751,3.7923,3.7864,3.7873,3.7924,3.792,3.8,3.801,3.803,3.8159,3.8183,3.8245,3.8146,3.8485,3.8493,3.85,3.8545,3.8559,3.8571,0,0,0,0,0,3.7544,3.765,3.7643,3.7671,3.7817,3.7927,3.7946,3.7967,3.7929,3.7981,3.802,3.8007,3.8223,3.8171,3.8198,3.8264,3.8481,3.8491,3.85,3.854,3.8556,3.8571,0,0,0,0,0,0,3.7579,3.766,3.7654,3.7788,3.7851,3.7924,3.799,3.7985,3.8059,3.8052,3.8075,3.8094,3.8214,3.8252,3.8192,3.8397,3.8347,3.8362,3.8368,3.8385,3.8397,3.8384,3.8154,0,0,0,0,0,3.7603,3.7685,3.7752,3.7863,3.7895,3.7937,3.7986,3.7997,3.8062,3.8089,3.8137,3.8201,3.8283,3.8336,3.8416,3.8551,3.8567,3.861,3.8623,3.8633,3.8645,3.8716,3.8735,3.8535,3.8535,3.8534,0,0,3.7652,3.7706,3.7757,3.7872,3.7921,3.8005,3.796,3.8052,3.8113,3.8103,3.8218,3.8255,3.8328,3.8456,3.8514,3.8491,3.8704,3.8645,3.8653,3.8659,3.8727,3.8746,3.8763,3.8541,3.854,3.8539,0,0,3.7783,3.7834,3.7931,3.7981,3.8057,3.8084,3.8107,3.8181,3.8205,3.832,3.8313,3.8387,3.8529,3.858,3.8625,3.8774,3.8763,3.8799,3.8865,3.8934,3.895,3.8964,3.9014,3.9032,3.8811,3.8812,3.8812,0,3.7835,3.7961,3.7982,3.8073,3.8123,3.8117,3.8213,3.8262,3.8359,3.8393,3.8365,3.854,3.859,3.8727,3.8763,3.8801,3.8826,3.8789,3.8946,3.896,3.8974,3.9021,3.904,3.8815,3.8815,3.8814,3.8814,0,3.8019,3.8106,3.8176,3.8268,3.8326,3.842,3.8454,3.851,3.8515,3.8545,3.8661,3.872,3.8808,3.8843,3.885,3.8981,3.8963,3.8941,3.889,3.8996,3.9041,3.9059,3.882,3.8819,3.8818,3.8817,0,0,3.8176,3.8278,3.8303,3.8343,3.8425,3.8493,3.8586,3.8672,3.8718,3.8786,3.8862,3.8981,3.896,3.9011,3.9024,3.9085,3.9194,3.9055,3.9056,3.9075,3.9337,3.9351,3.9372,3.9189,3.9192,3.9195,3.933,0,3.8313,3.8477,3.8497,3.8642,3.8721,3.8716,3.8797,3.8855,3.8885,3.8956,3.899,3.9072,3.904,3.907,3.9131,3.9168,3.9246,3.9159,3.9258,3.9261,3.9236,3.9396,3.9411,3.9536,3.9348,3.9351,3.9353,0,3.8494,3.8565,3.8717,3.8785,3.8819,3.8891,3.897,3.9039,3.9105,3.9122,3.9178,3.9182,3.9276,3.9224,3.9353,3.9293,3.9335,3.9359,3.9365,3.9372,3.9311,3.9404,3.9576,3.9593,3.9382,3.938,3.9378,0,3.8589,3.8723,3.883,3.8865,3.8949,3.8999,3.9036,3.9097,3.9147,3.9217,3.9248,3.9329,3.9372,3.9433,3.9458,3.9418,3.9585,3.9535,3.96,3.9599,3.9633,3.963,3.981,3.9666,3.9666,3.9665,3.9665,0,3.8737,3.883,3.8873,3.8939,3.9042,3.9064,3.9165,3.92,3.9255,3.9326,3.9328,3.9395,3.9426,3.9497,3.9518,3.962,3.964,3.9656,3.9659,3.9654,3.9651,3.9679,3.967,3.967,3.9669,3.9668,3.9667,0,3.886,3.8893,3.9009,3.9077,3.9097,3.9169,3.9227,3.929,3.9319,3.941,3.9432,3.9478,3.9562,3.9594,3.9697,3.971,3.9827,3.9826,3.9804,3.9804,3.9866,3.9858,4.0068,4.0095,3.9936,3.9937,3.9939,0,3.895,3.9021,3.9097,3.9144,3.9182,3.926,3.931,3.9335,3.9386,3.9465,3.9518,3.9601,3.9669,3.9803,3.9845,3.9923,3.9922,3.999,3.9933,3.9924,3.9918,3.9912,3.9918,3.9999,4.0001,4.0002,4.0003,0,3.9107,3.9119,3.9191,3.9268,3.9327,3.9389,3.945,3.9489,3.9523,3.9581,3.9666,3.9718,3.9822,3.9904,3.9984,4.0021,4.0017,4.0021,4.0039,4.0032,4.0015,4.0021,3.9829,4.0015,4.0014,4.0013,4.0013,4.0012,3.9214,3.9275,3.9336,3.9416,3.9463,3.9519,3.958,3.9617,3.9688,3.9774,3.9785,3.9875,3.9937,4.0043,4.0084,4.0155,4.0136,4.0164,4.017,4.0176,4.0178,4.0007,4.017,4.017,4.0169,4.0169,4.0169,0,3.9366,3.9406,3.9478,3.9562,3.9623,3.9615,3.9681,3.9732,3.9812,3.987,3.9936,4.0032,4.0111,4.0159,4.0238,4.0285,4.0285,4.0304,4.0299,4.0307,4.0192,4.0166,4.0303,4.0303,4.0303,4.0303,4.0303,4.0303,3.9453,3.9555,3.9574,3.9699,3.9737,3.9825,3.9863,3.9914,3.996,4.0067,4.0132,4.0163,4.0216,4.0298,4.0369,4.0381,4.0409,4.043,4.0439,4.033,4.0316,4.0303,4.0278,4.0436,4.0436,4.0548,4.0549,4.055]},{"header":{"parameterUnit":"m.s-1","parameterCategory":1,"la1":30.2991,"la2":30.254,"lo1":-89.0895,"lo2":-89.0444,"dy":0.0017,"dx":0.0017,"nx":28,"ny":28,"refTime":"2025-04-14T03:00:00:Z","depth":0,"parameterNumber":3,"parameterNumberName":"V-component_of_WINDS"},"data":[0,0,0,0,0,0,0,0,0,0,0,0,0,0,0,0,0,0,0,0,0,0,0,0,0,0,0,0,0,0,0,0,0,0,0,0,0,0,0,0,0,0,0,0,0,0,0,0,0,0,0,0,0,0,0,0,0,0,4.0458,4.0459,0,4.0588,4.0589,4.059,4.0572,4.057,4.0568,4.0566,4.0694,4.0699,4.0705,0,0,0,0,0,0,0,0,0,0,0,0,0,4.019,4.0195,4.0458,4.046,4.0461,4.0587,4.0589,4.0591,4.0573,4.057,4.0568,4.0565,4.0692,4.0699,4.0705,0,0,0,0,0,0,0,0,0,0,0,0,0,4.0311,4.0196,4.0458,4.0468,4.047,4.0587,4.0589,4.0591,4.0573,4.057,4.0567,4.0564,4.069,4.0698,4.0706,4.082,0,0,4.0731,4.0734,0,0,0,0,0,0,0,0,4.0304,4.0321,4.0464,4.0467,4.047,4.0561,4.0541,4.0668,4.0574,4.0534,4.0566,4.0562,4.0652,4.0663,4.0694,4.0826,4.0832,4.0732,4.0736,4.074,4.0742,0,0,0,0,0,0,0,4.0296,4.0315,4.0509,4.0467,4.047,4.0464,4.0477,4.0565,4.0609,4.0537,4.0536,4.0552,4.0653,4.0686,4.0697,4.0834,4.0731,4.0738,4.0743,4.0747,4.1064,4.1067,0,0,0,0,0,0,4.0286,4.0308,4.0505,4.0513,4.0378,4.0471,4.0486,4.0535,4.0608,4.0616,4.0555,4.0551,4.0674,4.0688,4.0701,4.0839,4.074,4.0747,4.0752,4.106,4.1064,4.1068,0,0,0,0,0,0,4.028,4.0303,4.05,4.0411,4.0435,4.0479,4.0533,4.0539,4.0573,4.0622,4.0629,4.0581,4.0672,4.069,4.0791,4.0843,4.0751,4.0758,4.1056,4.1061,4.1066,4.1116,0,0,0,0,0,0,4.0272,4.0301,4.0347,4.0412,4.044,4.0589,4.0537,4.0544,4.0587,4.0583,4.0648,4.0656,4.0671,4.0779,4.0799,4.0853,4.0765,4.1051,4.1058,4.1065,4.1109,4.1122,4.1133,0,0,0,0,0,4.0263,4.0355,4.0349,4.0373,4.0498,4.0592,4.0608,4.0625,4.0592,4.0636,4.0667,4.0654,4.0834,4.0789,4.0812,4.0869,4.1048,4.1056,4.1064,4.1104,4.112,4.1132,0,0,0,0,0,0,4.0294,4.0364,4.0358,4.0474,4.0527,4.0589,4.0646,4.064,4.0703,4.0696,4.0713,4.0728,4.0829,4.0859,4.0808,4.0982,4.0936,4.0949,4.0959,4.0974,4.0985,4.0976,4.0772,0,0,0,0,0,4.0314,4.0386,4.0443,4.054,4.0567,4.0602,4.0644,4.0652,4.0707,4.0729,4.0767,4.082,4.0888,4.0933,4.0998,4.1114,4.1126,4.1164,4.1175,4.1184,4.1195,4.1256,4.1273,4.1095,4.1095,4.1094,0,0,4.0357,4.0404,4.0448,4.0547,4.0589,4.0662,4.0621,4.07,4.0753,4.074,4.0838,4.0868,4.0927,4.1035,4.1085,4.1063,4.1247,4.1195,4.1202,4.1207,4.1266,4.1283,4.1298,4.11,4.1099,4.1098,0,0,4.0472,4.0516,4.0601,4.0644,4.0708,4.0731,4.0751,4.0813,4.0833,4.0932,4.0923,4.0985,4.1103,4.1146,4.1183,4.1312,4.1301,4.1333,4.1393,4.1453,4.1467,4.1479,4.1524,4.154,4.1343,4.1343,4.1343,0,4.0516,4.0627,4.0644,4.0725,4.0767,4.076,4.0845,4.0885,4.0967,4.0996,4.0971,4.1118,4.1157,4.1274,4.1306,4.1337,4.1359,4.1325,4.1464,4.1476,4.1488,4.1531,4.1548,4.1347,4.1346,4.1346,4.1346,0,4.0678,4.0755,4.0815,4.0896,4.0946,4.1028,4.1055,4.1103,4.1106,4.1131,4.123,4.1277,4.1351,4.138,4.1384,4.1497,4.1481,4.146,4.1414,4.1508,4.1549,4.1565,4.1351,4.135,4.1349,4.1348,0,0,4.0817,4.0906,4.0927,4.0963,4.1033,4.1092,4.1172,4.1247,4.1286,4.1343,4.141,4.1509,4.1489,4.1531,4.1539,4.1591,4.1689,4.1563,4.1565,4.1584,4.1815,4.183,4.1849,4.1682,4.1686,4.1688,4.1809,0,4.0938,4.1082,4.1099,4.1227,4.1297,4.129,4.136,4.1409,4.1434,4.1495,4.1521,4.1591,4.156,4.1585,4.1637,4.1666,4.1735,4.1658,4.1743,4.1745,4.1728,4.1871,4.1888,4.2,4.1826,4.1828,4.183,0,4.1098,4.116,4.1295,4.1355,4.1385,4.1447,4.1516,4.1575,4.163,4.1644,4.169,4.1692,4.1772,4.1724,4.1834,4.1781,4.1816,4.1836,4.184,4.1848,4.1793,4.1882,4.2036,4.2053,4.1856,4.1854,4.1852,0,4.1184,4.1302,4.1397,4.1428,4.15,4.1544,4.1576,4.1628,4.1671,4.173,4.1757,4.1824,4.1861,4.1912,4.193,4.1893,4.2039,4.1992,4.2051,4.2051,4.2082,4.208,4.2244,4.2106,4.2106,4.2105,4.2105,0,4.1317,4.14,4.1437,4.1495,4.1587,4.1605,4.1694,4.1723,4.1769,4.1832,4.183,4.1888,4.1909,4.1971,4.1985,4.2073,4.209,4.2102,4.2105,4.2102,4.21,4.2125,4.2117,4.211,4.2109,4.2108,4.2107,0,4.1429,4.1457,4.1561,4.162,4.1637,4.1702,4.1752,4.1807,4.1831,4.191,4.1929,4.1966,4.2038,4.2061,4.2148,4.2157,4.226,4.2256,4.2242,4.2242,4.2299,4.2293,4.2485,4.251,4.2356,4.2358,4.2359,0,4.1512,4.1575,4.1642,4.1684,4.1718,4.1786,4.183,4.1849,4.1895,4.1962,4.2009,4.208,4.2139,4.2253,4.2286,4.2352,4.2349,4.2411,4.2358,4.2353,4.2348,4.2344,4.235,4.2421,4.2422,4.2424,4.2425,0,4.1655,4.1666,4.173,4.1799,4.1852,4.1907,4.1959,4.1994,4.202,4.2071,4.2145,4.2191,4.2279,4.235,4.2416,4.2446,4.244,4.2441,4.2458,4.2456,4.2444,4.245,4.2268,4.2437,4.2435,4.2435,4.2434,4.2433,4.1754,4.1809,4.1865,4.1936,4.1978,4.2027,4.2082,4.2113,4.2175,4.225,4.2257,4.2337,4.2388,4.2477,4.251,4.2571,4.2553,4.2578,4.2584,4.259,4.2594,4.2435,4.2584,4.2583,4.2583,4.2583,4.2583,0,4.1896,4.1931,4.1997,4.2071,4.2126,4.2117,4.2174,4.2221,4.2292,4.2341,4.2398,4.2483,4.2551,4.2589,4.2656,4.2697,4.2696,4.2714,4.2711,4.2718,4.2607,4.2585,4.2714,4.2714,4.2714,4.2714,4.2714,4.2714,4.1976,4.2069,4.2086,4.2199,4.2233,4.2313,4.2346,4.2391,4.243,4.2525,4.2582,4.2607,4.2651,4.2721,4.2782,4.2792,4.2816,4.2836,4.2843,4.2739,4.2726,4.2713,4.2692,4.2842,4.2842,4.2949,4.295,4.295]}]]